| time (UTC) | temp F | wind direction | speed MPH | gust MPH | rain 1hr in | rain 24hr in | rain mn in | humidity % | barometer mb |
| 20260505074032 | 73 | 285 | 9.0 | 0.0 | 0.00 | 0.00 | 0.00 | 45 | 1016.1 |
| 20260505073958 | 73 | 278 | 10.0 | 12.0 | 0.00 | 0.00 | 0.00 | 44 | 1015.8 |
| 20260505073523 | 72 | 296 | 9.0 | 0.0 | 0.00 | 0.00 | 0.00 | 50 | 1016.2 |
| 20260505073100 | 72 | 275 | 9.0 | 0.0 | 0.00 | 0.00 | 0.00 | 46 | 1016.3 |
| 20260505073029 | 72 | 308 | 9.0 | 0.0 | 0.00 | 0.00 | 0.00 | 46 | 1016.2 |
| 20260505072959 | 72 | 279 | 9.0 | 12.0 | 0.00 | 0.00 | 0.00 | 46 | 1015.9 |
| 20260505072530 | 72 | 276 | 8.0 | 0.0 | 0.00 | 0.00 | 0.00 | 48 | 1016.1 |
| 20260505072023 | 71 | 283 | 7.0 | 0.0 | 0.00 | 0.00 | 0.00 | 51 | 1016.2 |
| 20260505071959 | 71 | 281 | 7.0 | 12.0 | 0.00 | 0.00 | 0.00 | 49 | 1015.9 |
| 20260505071534 | 71 | 273 | 7.0 | 0.0 | 0.00 | 0.00 | 0.00 | 49 | 1016.3 |
| 20260505071513 | 70 | 275 | 7.0 | 0.0 | 0.00 | 0.00 | 0.00 | 49 | 1016.2 |
| 20260505071022 | 70 | 286 | 7.0 | 0.0 | 0.00 | 0.00 | 0.00 | 50 | 1016.3 |
| 20260505070534 | 70 | 305 | 7.0 | 0.0 | 0.00 | 0.00 | 0.00 | 48 | 1016.4 |
| 20260505070042 | 69 | 296 | 6.0 | 0.0 | 0.00 | 0.00 | 0.00 | 53 | 1016.4 |
| 20260505070022 | 69 | 298 | 6.0 | 0.0 | 0.00 | 0.00 | 0.00 | 53 | 1016.4 |
| 20260505070000 | 69 | 292 | 6.0 | 10.0 | 0.00 | 0.00 | 0.00 | 53 | 1016.0 |
| 20260505065601 | 68 | 299 | 8.0 | 0.0 | 0.00 | 0.00 | 0.00 | 56 | 1016.3 |
| 20260505065024 | 67 | 273 | 8.0 | 0.0 | 0.00 | 0.00 | 0.00 | 56 | 1016.3 |
| 20260505065000 | 67 | 274 | 9.0 | 12.0 | 0.00 | 0.00 | 0.00 | 57 | 1016.1 |
| 20260505064614 | 66 | 279 | 7.0 | 0.0 | 0.00 | 0.00 | 0.00 | 59 | 1016.4 |
| 20260505064533 | 67 | 291 | 7.0 | 0.0 | 0.00 | 0.00 | 0.00 | 59 | 1016.3 |
| 20260505064044 | 66 | 286 | 6.0 | 0.0 | 0.00 | 0.00 | 0.00 | 60 | 1016.4 |
| 20260505064000 | 66 | 285 | 7.0 | 10.0 | 0.00 | 0.00 | 0.00 | 59 | 1016.1 |
| 20260505063532 | 65 | 311 | 5.0 | 0.0 | 0.00 | 0.00 | 0.00 | 61 | 1016.2 |
| 20260505063039 | 64 | 294 | 5.0 | 0.0 | 0.00 | 0.00 | 0.00 | 63 | 1016.3 |
| 20260505063006 | 64 | 310 | 4.0 | 0.0 | 0.00 | 0.00 | 0.00 | 62 | 1016.3 |
| 20260505062522 | 64 | 304 | 4.0 | 0.0 | 0.00 | 0.00 | 0.00 | 63 | 1016.4 |
| 20260505062028 | 63 | 284 | 4.0 | 0.0 | 0.00 | 0.00 | 0.00 | 66 | 1016.5 |
| 20260505062000 | 63 | 311 | 2.0 | 8.0 | 0.00 | 0.00 | 0.00 | 66 | 1016.2 |
| 20260505061621 | 62 | 272 | 4.0 | 0.0 | 0.00 | 0.00 | 0.00 | 65 | 1016.6 |
| 20260505061533 | 62 | 278 | 4.0 | 0.0 | 0.00 | 0.00 | 0.00 | 64 | 1016.6 |
| 20260505061043 | 62 | 295 | 3.0 | 0.0 | 0.00 | 0.00 | 0.00 | 65 | 1016.7 |
| 20260505061000 | 62 | 308 | 3.0 | 6.0 | 0.00 | 0.00 | 0.00 | 66 | 1016.4 |
| 20260505060528 | 61 | 315 | 2.0 | 0.0 | 0.00 | 0.00 | 0.00 | 66 | 1016.7 |
| 20260505060110 | 60 | 302 | 3.0 | 0.0 | 0.00 | 0.00 | 0.00 | 66 | 1016.6 |
| 20260505060035 | 61 | 302 | 3.0 | 0.0 | 0.00 | 0.00 | 0.00 | 66 | 1016.7 |
| 20260505060002 | 61 | 304 | 2.0 | 5.0 | 0.00 | 0.00 | 0.00 | 66 | 1016.4 |
| 20260505055529 | 60 | 299 | 3.0 | 0.0 | 0.00 | 0.00 | 0.00 | 65 | 1016.7 |
| 20260505055035 | 60 | 321 | 3.0 | 0.0 | 0.00 | 0.00 | 0.00 | 66 | 1016.7 |
| 20260505054959 | 60 | 324 | 3.0 | 5.0 | 0.00 | 0.00 | 0.00 | 66 | 1016.5 |
| 20260505054600 | 59 | 346 | 3.0 | 0.0 | 0.00 | 0.00 | 0.00 | 67 | 1016.8 |
| 20260505054521 | 60 | 346 | 3.0 | 0.0 | 0.00 | 0.00 | 0.00 | 67 | 1016.8 |
| 20260505054055 | 59 | 360 | 3.0 | 0.0 | 0.00 | 0.00 | 0.00 | 67 | 1016.6 |
| 20260505053959 | 59 | 354 | 3.0 | 5.0 | 0.00 | 0.00 | 0.00 | 67 | 1016.4 |
| 20260505053527 | 59 | 355 | 4.0 | 0.0 | 0.00 | 0.00 | 0.00 | 69 | 1016.7 |
| 20260505053040 | 59 | 348 | 3.0 | 0.0 | 0.00 | 0.00 | 0.00 | 71 | 1016.7 |
| 20260505053026 | 58 | 342 | 3.0 | 0.0 | 0.00 | 0.00 | 0.00 | 72 | 1016.7 |
| 20260505052959 | 58 | 343 | 3.0 | 5.0 | 0.00 | 0.00 | 0.00 | 73 | 1016.3 |
| 20260505052531 | 58 | 344 | 4.0 | 0.0 | 0.00 | 0.00 | 0.00 | 73 | 1016.5 |
| 20260505052023 | 58 | 329 | 4.0 | 0.0 | 0.00 | 0.00 | 0.00 | 74 | 1016.6 |
| 20260505051533 | 57 | 341 | 3.0 | 0.0 | 0.00 | 0.00 | 0.00 | 76 | 1016.6 |
| 20260505051517 | 57 | 345 | 3.0 | 0.0 | 0.00 | 0.00 | 0.00 | 77 | 1016.5 |
| 20260505051019 | 56 | 342 | 3.0 | 0.0 | 0.00 | 0.00 | 0.00 | 79 | 1016.5 |
| 20260505050959 | 56 | 342 | 3.0 | 3.0 | 0.00 | 0.00 | 0.00 | 79 | 1016.1 |
| 20260505050554 | 55 | 336 | 2.0 | 0.0 | 0.00 | 0.00 | 0.00 | 80 | 1016.6 |
| 20260505050113 | 54 | 317 | 1.0 | 0.0 | 0.00 | 0.00 | 0.00 | 82 | 1016.5 |
| 20260505041621 | 48 | 9 | 0.0 | 0.0 | 0.00 | 0.00 | 0.00 | 84 | 1016.5 |
| 20260505041532 | 49 | 9 | 0.0 | 0.0 | 0.00 | 0.00 | 0.00 | 84 | 1016.6 |
| 20260505041042 | 48 | 86 | 0.0 | 0.0 | 0.00 | 0.00 | 0.00 | 83 | 1016.6 |
| 20260505040530 | 48 | 86 | 0.0 | 0.0 | 0.00 | 0.00 | 0.00 | 83 | 1016.5 |
| 20260505040115 | 48 | 76 | 1.0 | 0.0 | 0.00 | 0.00 | 0.00 | 83 | 1016.6 |
| 20260505040020 | 48 | 77 | 1.0 | 0.0 | 0.00 | 0.00 | 0.00 | 83 | 1016.7 |
| 20260505040000 | 48 | 76 | 0.0 | 3.0 | 0.00 | 0.00 | 0.00 | 83 | 1016.3 |
| 20260505035556 | 48 | 76 | 2.0 | 0.0 | 0.00 | 0.00 | 0.00 | 83 | 1016.6 |
| 20260505035032 | 48 | 76 | 2.0 | 0.0 | 0.00 | 0.00 | 0.00 | 82 | 1016.6 |
| 20260505034555 | 48 | 82 | 1.0 | 0.0 | 0.00 | 0.00 | 0.00 | 82 | 1016.6 |
| 20260505034536 | 48 | 82 | 1.0 | 0.0 | 0.00 | 0.00 | 0.00 | 82 | 1016.5 |
| 20260505034034 | 48 | 82 | 2.0 | 0.0 | 0.00 | 0.00 | 0.00 | 82 | 1016.4 |
| 20260505034000 | 48 | 82 | 0.0 | 3.0 | 0.00 | 0.00 | 0.00 | 82 | 1016.2 |
| 20260505033525 | 48 | 82 | 2.0 | 0.0 | 0.00 | 0.00 | 0.00 | 82 | 1016.5 |
| 20260505033104 | 48 | 88 | 1.0 | 0.0 | 0.00 | 0.00 | 0.00 | 81 | 1016.4 |
| 20260505033037 | 49 | 88 | 1.0 | 0.0 | 0.00 | 0.00 | 0.00 | 81 | 1016.5 |
| 20260505032532 | 49 | 105 | 2.0 | 0.0 | 0.00 | 0.00 | 0.00 | 81 | 1016.3 |
| 20260505032020 | 49 | 105 | 2.0 | 0.0 | 0.00 | 0.00 | 0.00 | 80 | 1016.4 |
| 20260505031959 | 49 | 106 | 2.0 | 3.0 | 0.00 | 0.00 | 0.00 | 80 | 1016.1 |
| 20260505031603 | 48 | 237 | 1.0 | 0.0 | 0.00 | 0.00 | 0.00 | 80 | 1016.4 |
| 20260505031533 | 49 | 237 | 1.0 | 0.0 | 0.00 | 0.00 | 0.00 | 80 | 1016.3 |
| 20260505031031 | 49 | 241 | 1.0 | 0.0 | 0.00 | 0.00 | 0.00 | 79 | 1016.4 |
| 20260505031000 | 49 | 241 | 0.0 | 3.0 | 0.00 | 0.00 | 0.00 | 79 | 1016.1 |
| 20260505030521 | 49 | 241 | 2.0 | 0.0 | 0.00 | 0.00 | 0.00 | 78 | 1016.4 |
| 20260505030112 | 48 | 240 | 3.0 | 0.0 | 0.00 | 0.00 | 0.00 | 79 | 1016.4 |
| 20260505030053 | 49 | 240 | 3.0 | 0.0 | 0.00 | 0.00 | 0.00 | 79 | 1016.5 |
| 20260505030000 | 48 | 237 | 2.0 | 3.0 | 0.00 | 0.00 | 0.00 | 79 | 1016.1 |
| 20260505025552 | 49 | 217 | 3.0 | 0.0 | 0.00 | 0.00 | 0.00 | 79 | 1016.4 |
| 20260505025025 | 49 | 200 | 2.0 | 0.0 | 0.00 | 0.00 | 0.00 | 79 | 1016.4 |
| 20260505025000 | 49 | 182 | 3.0 | 3.0 | 0.00 | 0.00 | 0.00 | 79 | 1016.1 |
| 20260505024631 | 48 | 50 | 1.0 | 0.0 | 0.00 | 0.00 | 0.00 | 79 | 1016.4 |
| 20260505024555 | 49 | 50 | 1.0 | 0.0 | 0.00 | 0.00 | 0.00 | 79 | 1016.6 |
| 20260505024032 | 49 | 53 | 0.0 | 0.0 | 0.00 | 0.00 | 0.00 | 79 | 1016.5 |
| 20260505023959 | 49 | 53 | 0.0 | 2.0 | 0.00 | 0.00 | 0.00 | 79 | 1016.3 |
| 20260505023520 | 49 | 53 | 0.0 | 0.0 | 0.00 | 0.00 | 0.00 | 78 | 1016.6 |
| 20260505023118 | 49 | 53 | 1.0 | 0.0 | 0.00 | 0.00 | 0.00 | 78 | 1016.5 |
| 20260505023034 | 50 | 53 | 1.0 | 0.0 | 0.00 | 0.00 | 0.00 | 78 | 1016.6 |
| 20260505023000 | 50 | 53 | 0.0 | 2.0 | 0.00 | 0.00 | 0.00 | 78 | 1016.3 |
| 20260505022526 | 50 | 53 | 2.0 | 0.0 | 0.00 | 0.00 | 0.00 | 78 | 1016.6 |
| 20260505022023 | 50 | 52 | 3.0 | 0.0 | 0.00 | 0.00 | 0.00 | 77 | 1016.5 |
| 20260505022000 | 50 | 52 | 1.0 | 5.0 | 0.00 | 0.00 | 0.00 | 77 | 1016.1 |
| 20260505021627 | 50 | 52 | 3.0 | 0.0 | 0.00 | 0.00 | 0.00 | 76 | 1016.7 |
| 20260505021518 | 51 | 52 | 3.0 | 0.0 | 0.00 | 0.00 | 0.00 | 76 | 1016.6 |
| 20260505021023 | 52 | 40 | 2.0 | 0.0 | 0.00 | 0.00 | 0.00 | 74 | 1016.7 |
| 20260505021000 | 52 | 38 | 3.0 | 3.0 | 0.00 | 0.00 | 0.00 | 74 | 1016.3 |
| 20260505020534 | 52 | 325 | 2.0 | 0.0 | 0.00 | 0.00 | 0.00 | 72 | 1016.5 |
| 20260505020033 | 52 | 324 | 1.0 | 0.0 | 0.00 | 0.00 | 0.00 | 71 | 1016.6 |
| 20260505020002 | 52 | 325 | 1.0 | 0.0 | 0.00 | 0.00 | 0.00 | 71 | 1016.5 |
| 20260505020000 | 52 | 316 | 2.0 | 3.0 | 0.00 | 0.00 | 0.00 | 71 | 1016.4 |
| 20260505015523 | 52 | 263 | 1.0 | 0.0 | 0.00 | 0.00 | 0.00 | 71 | 1016.6 |
| 20260505015033 | 52 | 207 | 3.0 | 0.0 | 0.00 | 0.00 | 0.00 | 71 | 1016.6 |
| 20260505014959 | 52 | 207 | 1.0 | 7.0 | 0.00 | 0.00 | 0.00 | 71 | 1016.3 |
| 20260505014627 | 51 | 221 | 4.0 | 0.0 | 0.00 | 0.00 | 0.00 | 71 | 1016.6 |
| 20260505014526 | 52 | 221 | 4.0 | 0.0 | 0.00 | 0.00 | 0.00 | 71 | 1016.6 |
| 20260505014040 | 51 | 233 | 4.0 | 0.0 | 0.00 | 0.00 | 0.00 | 72 | 1016.5 |
| 20260505013532 | 51 | 232 | 4.0 | 0.0 | 0.00 | 0.00 | 0.00 | 73 | 1016.6 |
| 20260505013131 | 50 | 249 | 5.0 | 0.0 | 0.00 | 0.00 | 0.00 | 74 | 1016.6 |
| 20260505013048 | 51 | 232 | 5.0 | 0.0 | 0.00 | 0.00 | 0.00 | 74 | 1016.6 |
| 20260505013000 | 50 | 233 | 5.0 | 7.0 | 0.00 | 0.00 | 0.00 | 74 | 1016.2 |
| 20260505012543 | 50 | 243 | 4.0 | 0.0 | 0.00 | 0.00 | 0.00 | 75 | 1016.5 |
| 20260505012033 | 50 | 231 | 3.0 | 0.0 | 0.00 | 0.00 | 0.00 | 76 | 1016.6 |
| 20260505012000 | 50 | 234 | 5.0 | 5.0 | 0.00 | 0.00 | 0.00 | 77 | 1016.3 |
| 20260505011623 | 49 | 245 | 3.0 | 0.0 | 0.00 | 0.00 | 0.00 | 78 | 1016.6 |
| 20260505011530 | 49 | 229 | 3.0 | 0.0 | 0.00 | 0.00 | 0.00 | 78 | 1016.6 |
| 20260505011047 | 49 | 227 | 2.0 | 0.0 | 0.00 | 0.00 | 0.00 | 79 | 1016.7 |
| 20260505011000 | 49 | 232 | 2.0 | 3.0 | 0.00 | 0.00 | 0.00 | 79 | 1016.2 |
| 20260505010540 | 49 | 225 | 1.0 | 0.0 | 0.00 | 0.00 | 0.00 | 79 | 1016.7 |
| 20260505010118 | 49 | 225 | 1.0 | 0.0 | 0.00 | 0.00 | 0.00 | 80 | 1016.7 |
| 20260505010052 | 49 | 231 | 1.0 | 0.0 | 0.00 | 0.00 | 0.00 | 80 | 1016.7 |
| 20260505005528 | 49 | 285 | 2.0 | 0.0 | 0.00 | 0.00 | 0.00 | 80 | 1016.4 |
| 20260505005043 | 49 | 285 | 1.0 | 0.0 | 0.00 | 0.00 | 0.00 | 80 | 1016.7 |
| 20260505005000 | 49 | 285 | 2.0 | 3.0 | 0.00 | 0.00 | 0.00 | 80 | 1016.3 |
| 20260505004557 | 49 | 263 | 1.0 | 0.0 | 0.00 | 0.00 | 0.00 | 80 | 1016.6 |
| 20260505004533 | 49 | 263 | 1.0 | 0.0 | 0.00 | 0.00 | 0.00 | 80 | 1016.5 |
| 20260505004026 | 49 | 262 | 2.0 | 0.0 | 0.00 | 0.00 | 0.00 | 79 | 1016.5 |
| 20260505004000 | 49 | 262 | 2.0 | 3.0 | 0.00 | 0.00 | 0.00 | 79 | 1016.2 |
| 20260505003544 | 50 | 262 | 1.0 | 0.0 | 0.00 | 0.00 | 0.00 | 80 | 1016.6 |
| 20260505003102 | 49 | 5 | 1.0 | 0.0 | 0.00 | 0.00 | 0.00 | 79 | 1016.7 |
| 20260505003033 | 50 | 5 | 1.0 | 0.0 | 0.00 | 0.00 | 0.00 | 79 | 1016.7 |
| 20260505003000 | 50 | 5 | 1.0 | 3.0 | 0.00 | 0.00 | 0.00 | 79 | 1016.3 |
| 20260505002530 | 50 | 5 | 2.0 | 0.0 | 0.00 | 0.00 | 0.00 | 79 | 1016.5 |
| 20260505002041 | 50 | 5 | 2.0 | 0.0 | 0.00 | 0.00 | 0.00 | 78 | 1016.5 |
| 20260505002001 | 50 | 5 | 1.0 | 3.0 | 0.00 | 0.00 | 0.00 | 78 | 1016.3 |
| 20260505001612 | 50 | 5 | 2.0 | 0.0 | 0.00 | 0.00 | 0.00 | 78 | 1016.4 |
| 20260505001532 | 51 | 5 | 2.0 | 0.0 | 0.00 | 0.00 | 0.00 | 78 | 1016.6 |
| 20260505001024 | 51 | 5 | 2.0 | 0.0 | 0.00 | 0.00 | 0.00 | 77 | 1016.6 |
| 20260505000531 | 51 | 5 | 2.0 | 0.0 | 0.00 | 0.00 | 0.00 | 76 | 1016.7 |
| 20260505000108 | 50 | 5 | 2.0 | 0.0 | 0.00 | 0.00 | 0.00 | 75 | 1016.8 |
| 20260505000025 | 51 | 5 | 2.0 | 0.0 | 0.00 | 0.00 | 0.00 | 75 | 1016.7 |
| 20260505000000 | 51 | 3 | 3.0 | 3.0 | 0.00 | 0.00 | 0.00 | 75 | 1016.5 |
| 20260504235535 | 51 | 355 | 3.0 | 0.0 | 0.00 | 0.00 | 0.00 | 74 | 1016.7 |
| 20260504235051 | 51 | 249 | 3.0 | 0.0 | 0.00 | 0.00 | 0.00 | 74 | 1016.6 |
| 20260504235001 | 51 | 250 | 2.0 | 5.0 | 0.00 | 0.00 | 0.00 | 74 | 1016.2 |
| 20260504234549 | 50 | 226 | 1.0 | 0.0 | 0.00 | 0.00 | 0.00 | 74 | 1016.5 |
| 20260504234537 | 51 | 225 | 1.0 | 0.0 | 0.00 | 0.00 | 0.00 | 74 | 1016.5 |
| 20260504234033 | 51 | 301 | 0.0 | 0.0 | 0.00 | 0.00 | 0.00 | 74 | 1016.5 |
| 20260504234001 | 51 | 301 | 0.0 | 2.0 | 0.00 | 0.00 | 0.00 | 74 | 1016.2 |
| 20260504233532 | 51 | 301 | 1.0 | 0.0 | 0.00 | 0.00 | 0.00 | 74 | 1016.5 |
| 20260504233057 | 51 | 301 | 2.0 | 0.0 | 0.00 | 0.00 | 0.00 | 73 | 1016.6 |
| 20260504233036 | 51 | 301 | 2.0 | 0.0 | 0.00 | 0.00 | 0.00 | 73 | 1016.8 |
| 20260504232533 | 51 | 301 | 2.0 | 0.0 | 0.00 | 0.00 | 0.00 | 73 | 1016.7 |
| 20260504232048 | 51 | 281 | 4.0 | 0.0 | 0.00 | 0.00 | 0.00 | 73 | 1016.9 |
| 20260504232000 | 51 | 254 | 2.0 | 9.0 | 0.00 | 0.00 | 0.00 | 73 | 1016.6 |
| 20260504231542 | 51 | 232 | 5.0 | 0.0 | 0.00 | 0.00 | 0.00 | 73 | 1016.9 |
| 20260504231517 | 50 | 236 | 5.0 | 0.0 | 0.00 | 0.00 | 0.00 | 74 | 1016.9 |
| 20260504231031 | 50 | 248 | 4.0 | 0.0 | 0.00 | 0.00 | 0.00 | 74 | 1017.1 |
| 20260504231001 | 50 | 239 | 5.0 | 9.0 | 0.00 | 0.00 | 0.00 | 75 | 1016.6 |
| 20260504230550 | 50 | 223 | 4.0 | 0.0 | 0.00 | 0.00 | 0.00 | 76 | 1016.9 |
| 20260504230042 | 49 | 234 | 5.0 | 0.0 | 0.00 | 0.00 | 0.00 | 76 | 1017.0 |
| 20260504230009 | 49 | 232 | 5.0 | 0.0 | 0.00 | 0.00 | 0.00 | 76 | 1017.0 |
| 20260504230001 | 49 | 234 | 4.0 | 7.0 | 0.00 | 0.00 | 0.00 | 76 | 1016.6 |
| 20260504225535 | 49 | 220 | 4.0 | 0.0 | 0.00 | 0.00 | 0.00 | 77 | 1017.0 |
| 20260504225029 | 49 | 207 | 4.0 | 0.0 | 0.00 | 0.00 | 0.00 | 76 | 1016.9 |
| 20260504225001 | 49 | 209 | 3.0 | 6.0 | 0.00 | 0.00 | 0.00 | 76 | 1016.9 |
| 20260504224544 | 50 | 208 | 4.0 | 0.0 | 0.00 | 0.00 | 0.00 | 76 | 1017.2 |
| 20260504224517 | 49 | 206 | 4.0 | 0.0 | 0.00 | 0.00 | 0.00 | 76 | 1017.2 |
| 20260504224033 | 50 | 205 | 3.0 | 0.0 | 0.00 | 0.00 | 0.00 | 75 | 1017.2 |
| 20260504224001 | 50 | 205 | 3.0 | 7.0 | 0.00 | 0.00 | 0.00 | 75 | 1016.8 |
| 20260504223526 | 50 | 149 | 3.0 | 0.0 | 0.00 | 0.00 | 0.00 | 74 | 1017.2 |
| 20260504223039 | 51 | 86 | 3.0 | 0.0 | 0.00 | 0.00 | 0.00 | 74 | 1017.4 |
| 20260504223018 | 50 | 87 | 3.0 | 0.0 | 0.00 | 0.00 | 0.00 | 74 | 1017.4 |
| 20260504223001 | 51 | 79 | 2.0 | 7.0 | 0.00 | 0.00 | 0.00 | 74 | 1017.0 |
| 20260504222527 | 51 | 22 | 1.0 | 0.0 | 0.00 | 0.00 | 0.00 | 74 | 1017.3 |
| 20260504222038 | 52 | 22 | 1.0 | 0.0 | 0.00 | 0.00 | 0.00 | 73 | 1017.3 |
| 20260504222000 | 52 | 22 | 1.0 | 2.0 | 0.00 | 0.00 | 0.00 | 73 | 1017.1 |
| 20260504221556 | 51 | 22 | 1.0 | 0.0 | 0.00 | 0.00 | 0.00 | 72 | 1017.4 |
| 20260504221526 | 52 | 22 | 1.0 | 0.0 | 0.00 | 0.00 | 0.00 | 72 | 1017.4 |
| 20260504221021 | 52 | 22 | 0.0 | 0.0 | 0.00 | 0.00 | 0.00 | 72 | 1017.2 |
| 20260504221001 | 52 | 22 | 0.0 | 0.0 | 0.00 | 0.00 | 0.00 | 72 | 1016.9 |
| 20260504220536 | 53 | 22 | 0.0 | 0.0 | 0.00 | 0.00 | 0.00 | 71 | 1017.2 |
| 20260504220050 | 52 | 22 | 1.0 | 0.0 | 0.00 | 0.00 | 0.00 | 71 | 1017.1 |
| 20260504220028 | 53 | 22 | 1.0 | 0.0 | 0.00 | 0.00 | 0.00 | 71 | 1017.1 |
| 20260504220001 | 53 | 22 | 1.0 | 3.0 | 0.00 | 0.00 | 0.00 | 71 | 1016.9 |
| 20260504215523 | 53 | 22 | 2.0 | 0.0 | 0.00 | 0.00 | 0.00 | 69 | 1017.2 |
| 20260504215037 | 52 | 240 | 3.0 | 0.0 | 0.00 | 0.00 | 0.00 | 68 | 1017.2 |
| 20260504215000 | 52 | 240 | 2.0 | 5.0 | 0.00 | 0.00 | 0.00 | 68 | 1016.9 |
| 20260504214604 | 52 | 240 | 3.0 | 0.0 | 0.00 | 0.00 | 0.00 | 69 | 1017.1 |
| 20260504214529 | 52 | 240 | 3.0 | 0.0 | 0.00 | 0.00 | 0.00 | 70 | 1017.1 |
| 20260504214056 | 52 | 193 | 3.0 | 0.0 | 0.00 | 0.00 | 0.00 | 71 | 1017.2 |
| 20260504214001 | 52 | 193 | 1.0 | 5.0 | 0.00 | 0.00 | 0.00 | 71 | 1016.8 |
| 20260504213531 | 52 | 223 | 3.0 | 0.0 | 0.00 | 0.00 | 0.00 | 71 | 1017.2 |
| 20260504213042 | 52 | 199 | 2.0 | 0.0 | 0.00 | 0.00 | 0.00 | 72 | 1017.2 |
| 20260504213010 | 52 | 198 | 2.0 | 0.0 | 0.00 | 0.00 | 0.00 | 73 | 1017.1 |
| 20260504213001 | 52 | 182 | 1.0 | 3.0 | 0.00 | 0.00 | 0.00 | 73 | 1016.9 |
| 20260504212534 | 52 | 179 | 1.0 | 0.0 | 0.00 | 0.00 | 0.00 | 73 | 1017.2 |
| 20260504212027 | 53 | 179 | 1.0 | 0.0 | 0.00 | 0.00 | 0.00 | 74 | 1017.1 |
| 20260504212001 | 53 | 179 | 0.0 | 3.0 | 0.00 | 0.00 | 0.00 | 74 | 1016.8 |
| 20260504211648 | 53 | 179 | 2.0 | 0.0 | 0.00 | 0.00 | 0.00 | 73 | 1017.0 |
| 20260504211546 | 53 | 179 | 2.0 | 0.0 | 0.00 | 0.00 | 0.00 | 73 | 1017.2 |
| 20260504211038 | 54 | 186 | 2.0 | 0.0 | 0.00 | 0.00 | 0.00 | 73 | 1017.1 |
| 20260504210529 | 54 | 22 | 1.0 | 0.0 | 0.00 | 0.00 | 0.00 | 72 | 1017.0 |
| 20260504210128 | 54 | 13 | 2.0 | 0.0 | 0.00 | 0.00 | 0.00 | 71 | 1017.1 |
| 20260504210024 | 54 | 12 | 2.0 | 0.0 | 0.00 | 0.00 | 0.00 | 71 | 1017.1 |
| 20260504210001 | 54 | 12 | 1.0 | 5.0 | 0.00 | 0.00 | 0.00 | 71 | 1016.7 |
| 20260504205533 | 54 | 12 | 3.0 | 0.0 | 0.00 | 0.00 | 0.00 | 71 | 1017.3 |
| 20260504205025 | 54 | 355 | 4.0 | 0.0 | 0.00 | 0.00 | 0.00 | 69 | 1017.0 |
| 20260504205001 | 54 | 347 | 4.0 | 8.0 | 0.00 | 0.00 | 0.00 | 69 | 1016.7 |
| 20260504204540 | 54 | 299 | 4.0 | 0.0 | 0.00 | 0.00 | 0.00 | 66 | 1017.1 |
| 20260504204501 | 54 | 302 | 4.0 | 0.0 | 0.00 | 0.00 | 0.00 | 66 | 1017.0 |
| 20260504204031 | 54 | 300 | 5.0 | 0.0 | 0.00 | 0.00 | 0.00 | 66 | 1017.0 |
| 20260504204002 | 54 | 312 | 5.0 | 8.0 | 0.00 | 0.00 | 0.00 | 65 | 1016.7 |
| 20260504203523 | 54 | 221 | 5.0 | 0.0 | 0.00 | 0.00 | 0.00 | 65 | 1016.8 |
| 20260504203037 | 54 | 213 | 4.0 | 0.0 | 0.00 | 0.00 | 0.00 | 66 | 1016.8 |
| 20260504203001 | 54 | 203 | 3.0 | 0.0 | 0.00 | 0.00 | 0.00 | 66 | 1016.7 |
| 20260504202529 | 55 | 175 | 2.0 | 0.0 | 0.00 | 0.00 | 0.00 | 67 | 1016.8 |
| 20260504202023 | 55 | 198 | 4.0 | 0.0 | 0.00 | 0.00 | 0.00 | 64 | 1016.8 |
| 20260504202000 | 55 | 199 | 2.0 | 6.0 | 0.00 | 0.00 | 0.00 | 64 | 1016.7 |
| 20260504201539 | 55 | 205 | 4.0 | 0.0 | 0.00 | 0.00 | 0.00 | 63 | 1016.8 |
| 20260504201508 | 55 | 211 | 4.0 | 0.0 | 0.00 | 0.00 | 0.00 | 63 | 1016.9 |
| 20260504201057 | 55 | 205 | 4.0 | 0.0 | 0.00 | 0.00 | 0.00 | 63 | 1016.8 |
| 20260504200529 | 56 | 203 | 3.0 | 0.0 | 0.00 | 0.00 | 0.00 | 63 | 1016.9 |
| 20260504200128 | 55 | 193 | 3.0 | 0.0 | 0.00 | 0.00 | 0.00 | 63 | 1016.8 |
| 20260504200023 | 56 | 192 | 4.0 | 0.0 | 0.00 | 0.00 | 0.00 | 63 | 1016.9 |
| 20260504200001 | 56 | 192 | 3.0 | 6.0 | 0.00 | 0.00 | 0.00 | 63 | 1016.5 |
| 20260504195531 | 56 | 205 | 4.0 | 0.0 | 0.00 | 0.00 | 0.00 | 63 | 1016.9 |
| 20260504195023 | 56 | 200 | 5.0 | 0.0 | 0.00 | 0.00 | 0.00 | 62 | 1016.7 |
| 20260504195002 | 56 | 199 | 6.0 | 7.0 | 0.00 | 0.00 | 0.00 | 62 | 1016.3 |
| 20260504194627 | 56 | 198 | 5.0 | 0.0 | 0.00 | 0.00 | 0.00 | 62 | 1016.8 |
| 20260504194537 | 56 | 197 | 5.0 | 0.0 | 0.00 | 0.00 | 0.00 | 62 | 1016.7 |
| 20260504194025 | 56 | 205 | 5.0 | 0.0 | 0.00 | 0.00 | 0.00 | 63 | 1016.7 |
| 20260504194000 | 56 | 208 | 5.0 | 7.0 | 0.00 | 0.00 | 0.00 | 63 | 1016.4 |
| 20260504193533 | 56 | 229 | 5.0 | 0.0 | 0.00 | 0.00 | 0.00 | 63 | 1016.7 |
| 20260504193116 | 56 | 211 | 5.0 | 0.0 | 0.00 | 0.00 | 0.00 | 63 | 1016.7 |
| 20260504193036 | 56 | 218 | 5.0 | 0.0 | 0.00 | 0.00 | 0.00 | 63 | 1016.7 |
| 20260504193001 | 56 | 210 | 5.0 | 6.0 | 0.00 | 0.00 | 0.00 | 63 | 1016.3 |
| 20260504192527 | 56 | 204 | 5.0 | 0.0 | 0.00 | 0.00 | 0.00 | 64 | 1016.7 |
| 20260504192034 | 56 | 202 | 5.0 | 0.0 | 0.00 | 0.00 | 0.00 | 64 | 1016.6 |
| 20260504192002 | 56 | 204 | 5.0 | 7.0 | 0.00 | 0.00 | 0.00 | 64 | 1016.3 |
| 20260504191603 | 55 | 205 | 5.0 | 0.0 | 0.00 | 0.00 | 0.00 | 64 | 1016.7 |
| 20260504191535 | 56 | 225 | 5.0 | 0.0 | 0.00 | 0.00 | 0.00 | 64 | 1016.6 |
| 20260504191019 | 56 | 205 | 3.0 | 0.0 | 0.00 | 0.00 | 0.00 | 64 | 1016.7 |
| 20260504191002 | 56 | 213 | 5.0 | 7.0 | 0.00 | 0.00 | 0.00 | 64 | 1016.5 |
| 20260504190528 | 56 | 211 | 2.0 | 0.0 | 0.00 | 0.00 | 0.00 | 65 | 1016.7 |
| 20260504190035 | 57 | 173 | 2.0 | 0.0 | 0.00 | 0.00 | 0.00 | 65 | 1016.8 |
| 20260504190007 | 57 | 173 | 3.0 | 0.0 | 0.00 | 0.00 | 0.00 | 65 | 1016.7 |
| 20260504190001 | 57 | 174 | 1.0 | 5.0 | 0.00 | 0.00 | 0.00 | 65 | 1016.4 |
| 20260504185526 | 58 | 200 | 4.0 | 0.0 | 0.00 | 0.00 | 0.00 | 65 | 1016.8 |
| 20260504185026 | 59 | 192 | 4.0 | 0.0 | 0.00 | 0.00 | 0.00 | 64 | 1016.7 |
| 20260504185001 | 59 | 192 | 5.0 | 6.0 | 0.00 | 0.00 | 0.00 | 64 | 1016.4 |
| 20260504184542 | 60 | 191 | 4.0 | 0.0 | 0.00 | 0.00 | 0.00 | 64 | 1016.6 |
| 20260504184521 | 59 | 191 | 4.0 | 0.0 | 0.00 | 0.00 | 0.00 | 64 | 1016.6 |
| 20260504184034 | 61 | 190 | 3.0 | 0.0 | 0.00 | 0.00 | 0.00 | 63 | 1016.6 |
| 20260504184002 | 61 | 190 | 3.0 | 5.0 | 0.00 | 0.00 | 0.00 | 63 | 1016.4 |
| 20260504183527 | 61 | 183 | 3.0 | 0.0 | 0.00 | 0.00 | 0.00 | 62 | 1016.7 |
| 20260504183101 | 62 | 139 | 2.0 | 0.0 | 0.00 | 0.00 | 0.00 | 60 | 1016.6 |
| 20260504183001 | 62 | 139 | 2.0 | 3.0 | 0.00 | 0.00 | 0.00 | 60 | 1016.1 |
| 20260504182529 | 62 | 146 | 2.0 | 0.0 | 0.00 | 0.00 | 0.00 | 59 | 1016.6 |
| 20260504182021 | 63 | 171 | 2.0 | 0.0 | 0.00 | 0.00 | 0.00 | 58 | 1016.5 |
| 20260504182002 | 63 | 171 | 1.0 | 3.0 | 0.00 | 0.00 | 0.00 | 58 | 1016.2 |
| 20260504181540 | 64 | 173 | 1.0 | 0.0 | 0.00 | 0.00 | 0.00 | 57 | 1016.4 |
| 20260504181513 | 63 | 173 | 1.0 | 0.0 | 0.00 | 0.00 | 0.00 | 57 | 1016.4 |
| 20260504181031 | 64 | 60 | 2.0 | 0.0 | 0.00 | 0.00 | 0.00 | 57 | 1016.4 |
| 20260504181001 | 64 | 52 | 0.0 | 6.0 | 0.00 | 0.00 | 0.00 | 56 | 1015.9 |
| 20260504180527 | 65 | 42 | 3.0 | 0.0 | 0.00 | 0.00 | 0.00 | 55 | 1016.2 |
| 20260504180040 | 65 | 33 | 4.0 | 0.0 | 0.00 | 0.00 | 0.00 | 53 | 1016.1 |
| 20260504180016 | 65 | 30 | 4.0 | 0.0 | 0.00 | 0.00 | 0.00 | 53 | 1016.0 |
| 20260504180001 | 65 | 34 | 3.0 | 7.0 | 0.00 | 0.00 | 0.00 | 53 | 1015.7 |
| 20260504175530 | 65 | 54 | 3.0 | 0.0 | 0.00 | 0.00 | 0.00 | 51 | 1015.9 |
| 20260504175023 | 65 | 336 | 4.0 | 0.0 | 0.00 | 0.00 | 0.00 | 47 | 1015.7 |
| 20260504174539 | 65 | 337 | 5.0 | 0.0 | 0.00 | 0.00 | 0.00 | 46 | 1015.8 |
| 20260504174515 | 64 | 349 | 5.0 | 0.0 | 0.00 | 0.00 | 0.00 | 46 | 1015.6 |
| 20260504174028 | 65 | 28 | 4.0 | 0.0 | 0.00 | 0.00 | 0.00 | 52 | 1015.7 |
| 20260504173524 | 65 | 55 | 2.0 | 0.0 | 0.00 | 0.00 | 0.00 | 55 | 1015.6 |
| 20260504173048 | 66 | 72 | 2.0 | 0.0 | 0.00 | 0.00 | 0.00 | 52 | 1015.5 |
| 20260504173033 | 67 | 72 | 2.0 | 0.0 | 0.00 | 0.00 | 0.00 | 50 | 1015.5 |
| 20260504173001 | 67 | 339 | 1.0 | 5.0 | 0.00 | 0.00 | 0.00 | 50 | 1015.1 |
| 20260504172534 | 67 | 273 | 3.0 | 0.0 | 0.00 | 0.00 | 0.00 | 50 | 1015.2 |
| 20260504172027 | 68 | 272 | 3.0 | 0.0 | 0.00 | 0.00 | 0.00 | 51 | 1015.2 |
| 20260504172011 | 68 | 272 | 2.0 | 3.0 | 0.00 | 0.00 | 0.00 | 50 | 1014.8 |
| 20260504171544 | 68 | 273 | 3.0 | 0.0 | 0.00 | 0.00 | 0.00 | 48 | 1015.2 |
| 20260504171524 | 68 | 273 | 3.0 | 0.0 | 0.00 | 0.00 | 0.00 | 48 | 1015.2 |
| 20260504171022 | 69 | 273 | 3.0 | 0.0 | 0.00 | 0.00 | 0.00 | 48 | 1015.2 |
| 20260504171001 | 69 | 272 | 2.0 | 3.0 | 0.00 | 0.00 | 0.00 | 48 | 1014.8 |
| 20260504170529 | 70 | 269 | 4.0 | 0.0 | 0.00 | 0.00 | 0.00 | 47 | 1015.1 |
| 20260504160126 | 73 | 281 | 7.0 | 0.0 | 0.00 | 0.00 | 0.00 | 37 | 1015.0 |
| 20260504151103 | 75 | 272 | 7.0 | 0.0 | 0.00 | 0.00 | 0.00 | 33 | 1015.1 |
| 20260504151002 | 75 | 286 | 6.0 | 12.0 | 0.00 | 0.00 | 0.00 | 36 | 1014.8 |
| 20260504150559 | 75 | 265 | 8.0 | 0.0 | 0.00 | 0.00 | 0.00 | 34 | 1015.1 |
| 20260504150110 | 74 | 253 | 8.0 | 0.0 | 0.00 | 0.00 | 0.00 | 33 | 1015.3 |
| 20260504141028 | 75 | 275 | 8.0 | 0.0 | 0.00 | 0.00 | 0.00 | 32 | 1015.4 |
| 20260504141002 | 75 | 286 | 10.0 | 15.0 | 0.00 | 0.00 | 0.00 | 32 | 1015.1 |
| 20260504140533 | 75 | 304 | 7.0 | 0.0 | 0.00 | 0.00 | 0.00 | 34 | 1015.4 |
| 20260504130534 | 73 | 269 | 6.0 | 0.0 | 0.00 | 0.00 | 0.00 | 28 | 1016.2 |
| 20260504110538 | 69 | 228 | 3.0 | 0.0 | 0.00 | 0.00 | 0.00 | 31 | 1018.1 |
| 20260504100539 | 68 | 291 | 5.0 | 0.0 | 0.00 | 0.00 | 0.00 | 38 | 1018.6 |
| 20260504100150 | 67 | 315 | 5.0 | 0.0 | 0.00 | 0.00 | 0.00 | 38 | 1018.7 |
| 20260504100110 | 67 | 283 | 5.0 | 0.0 | 0.00 | 0.00 | 0.00 | 37 | 1018.7 |
| 20260504082003 | 62 | 296 | 2.0 | 8.0 | 0.00 | 0.00 | 0.00 | 42 | 1019.8 |
| 20260504081532 | 62 | 346 | 4.0 | 0.0 | 0.00 | 0.00 | 0.00 | 43 | 1020.1 |
| 20260504081503 | 62 | 346 | 4.0 | 0.0 | 0.00 | 0.00 | 0.00 | 41 | 1020.2 |
| 20260504081046 | 62 | 355 | 3.0 | 0.0 | 0.00 | 0.00 | 0.00 | 42 | 1020.2 |
| 20260504081003 | 62 | 349 | 3.0 | 7.0 | 0.00 | 0.00 | 0.00 | 45 | 1019.9 |
| 20260504080554 | 62 | 238 | 4.0 | 0.0 | 0.00 | 0.00 | 0.00 | 40 | 1020.2 |
| 20260504080117 | 61 | 350 | 5.0 | 0.0 | 0.00 | 0.00 | 0.00 | 44 | 1020.1 |